Odessa, TX

12:35 PM CDT on April 26, 2018 (GMT -0500)
Odessa-Schlemeyer

Weather History for KODO - June, 2013

Change the Weather History Date:

Thursday, June 13, 2013

  Actual Average (KMAF) Record (KMAF)
Temperature  
Mean Temperature 82 °F -  
Max Temperature 93 °F 90 °F 104 °F (1998)
Min Temperature 72 °F 65 °F 57 °F (1999)
Cooling Degree Days 18    
Growing Degree Days 32 (Base 50)    
Moisture  
Dew Point 63 °F    
Average Humidity 60    
Maximum Humidity 84    
Minimum Humidity 31    
Precipitation  
Precipitation 0.03 in - - ()
Sea Level Pressure  
Sea Level Pressure 29.93 in    
Wind  
Wind Speed 12 mph (SE)    
Max Wind Speed 32 mph    
Max Gust Speed 39 mph    
Visibility 10 miles    
Events Rain , Thunderstorm    
Averages and records for this station are not official NWS values.
T = Trace of Precipitation, MM = Missing Value Source: NWS Daily Summary

Daily Weather History Graph

Daily Weather History Graph

Search for Another Location

Airport or City:

Astronomy

Jun. 13, 2013 Rise Set
Actual Time 6:43 AM CDT 8:56 PM CDT
Civil Twilight 6:14 AM CDT 9:24 PM CDT
Nautical Twilight 5:40 AM CDT 9:59 PM CDT
Astronomical Twilight 5:03 AM CDT 10:36 PM CDT
Moon 11:08 AM CDT (6/13) No Moon Set
Length of Visible Light 15h 09m
Length of Day
14h 13m
Waxing Crescent, 22% of the Moon is Illuminated
Jun 13
Waxing Crescent
Jun 16
First Quarter
Jun 23
Full
Jun 29
Last Quarter
Jul 8
New

Hourly Weather History & Observations

Time (CDT) Temp. Heat Index Dew Point Humidity Pressure Visibility Wind Dir Wind Speed Gust Speed Precip Events Conditions
12:53 AM 80.1 °F 81.2 °F 62.1 °F 54% 29.92 in 10.0 mi SSE 9.2 mph - N/A   Clear
1:53 AM 78.1 °F - 62.1 °F 58% 29.92 in 10.0 mi SE 4.6 mph - N/A   Clear
2:53 AM 77.0 °F - 63.0 °F 62% 29.91 in 10.0 mi SE 8.1 mph - N/A   Clear
3:53 AM 75.9 °F - 63.0 °F 64% 29.89 in 10.0 mi SE 10.4 mph - N/A   Clear
4:53 AM 75.0 °F - 64.0 °F 69% 29.90 in 10.0 mi SSE 11.5 mph - N/A   Clear
5:53 AM 73.0 °F - 64.9 °F 76% 29.91 in 10.0 mi ESE 5.8 mph - N/A   Clear
6:53 AM 72.0 °F - 66.0 °F 81% 29.94 in 10.0 mi SE 11.5 mph - N/A   Clear
7:53 AM 73.0 °F - 66.0 °F 79% 29.96 in 10.0 mi SSE 13.8 mph 24.2 mph N/A   Mostly Cloudy
8:53 AM 75.0 °F - 66.0 °F 73% 29.97 in 8.0 mi South 12.7 mph - N/A   Overcast
9:53 AM 77.0 °F - 66.0 °F 69% 29.97 in 10.0 mi SE 12.7 mph - N/A   Mostly Cloudy
10:02 AM 77.0 °F - 66.2 °F 69% 30.12 in 10.0 mi SSE 13.8 mph - N/A   Scattered Clouds
10:53 AM 82.0 °F 83.8 °F 64.9 °F 56% 29.96 in 10.0 mi SE 12.7 mph - N/A   Scattered Clouds
11:53 AM 84.0 °F 85.8 °F 64.9 °F 53% 29.96 in 10.0 mi South 17.3 mph 20.7 mph N/A   Mostly Cloudy
12:53 PM 87.1 °F 87.8 °F 63.0 °F 44% 29.94 in 10.0 mi SSE 16.1 mph 23.0 mph N/A   Scattered Clouds
1:53 PM 88.0 °F 88.4 °F 62.1 °F 42% 29.92 in 10.0 mi SE 17.3 mph 20.7 mph N/A   Mostly Cloudy
2:53 PM 89.1 °F 88.8 °F 60.1 °F 38% 29.89 in 10.0 mi ESE 16.1 mph 25.3 mph N/A   Mostly Cloudy
3:53 PM 90.0 °F 89.7 °F 60.1 °F 37% 29.86 in 10.0 mi ESE 18.4 mph 23.0 mph N/A   Partly Cloudy
4:53 PM 93.0 °F 92.0 °F 57.9 °F 31% 29.84 in 10.0 mi SE 13.8 mph 23.0 mph N/A   Partly Cloudy
5:53 PM 88.0 °F 86.7 °F 57.0 °F 35% 29.83 in 10.0 mi SE 17.3 mph - N/A   Partly Cloudy
6:53 PM 90.0 °F 88.1 °F 55.9 °F 31% 29.81 in 10.0 mi SE 15.0 mph 19.6 mph N/A   Partly Cloudy
7:53 PM 89.1 °F 87.1 °F 55.0 °F 31% 29.82 in 10.0 mi SE 13.8 mph - N/A   Clear
8:46 PM 80.6 °F 82.3 °F 64.4 °F 58% 29.99 in 9.0 mi SE 26.5 mph 32.2 mph 0.00 in Rain , Thunderstorm Light Thunderstorms and Rain
8:53 PM 80.1 °F 81.2 °F 62.1 °F 54% 29.87 in 9.0 mi ESE 32.2 mph 39.1 mph 0.00 in Thunderstorm Thunderstorm
9:53 PM 73.0 °F - 68.0 °F 84% 29.94 in 7.0 mi ESE 10.4 mph 20.7 mph 0.01 in Rain , Thunderstorm Light Thunderstorms and Rain
10:12 PM 73.4 °F - 68.0 °F 83% 30.07 in 10.0 mi SE 8.1 mph - 0.02 in Rain Light Rain
10:23 PM 73.4 °F - 66.2 °F 78% 30.07 in 10.0 mi SSE 8.1 mph - 0.02 in Thunderstorm Overcast
10:53 PM 73.9 °F - 66.9 °F 79% 29.94 in 10.0 mi SSE 8.1 mph - 0.02 in Thunderstorm Mostly Cloudy
11:10 PM 73.4 °F - 66.2 °F 78% 30.07 in 10.0 mi South 9.2 mph - N/A   Mostly Cloudy
11:53 PM 73.0 °F - 66.0 °F 79% 29.91 in 10.0 mi South 9.2 mph - N/A   Clear